Tracking 29068 objects as of 19-Jul-2024
HD Live streaming from Space Station
objects crossing your sky now

OPS 6431

Track OPS 6431 now!
10-day predictions
OPS 6431 is classified as:


NORAD ID: 8818
Int'l Code: 1976-038A
Perigee: 614.6 km
Apogee: 1,251.5 km
Inclination: 63.3 °
Period: 103.5 minutes
Semi major axis: 7304 km
RCS: Unknown
Launch date: April 30, 1976
Source: United States (US)
Launch site: AIR FORCE WESTERN TEST RANGE (AFWTR)
Your satellite tracking list
Your tracking list is empty




NASA's NSSDC Master Catalog

Two Line Element Set (TLE):
1 08818U 76038A   24200.45072557  .00000614  00000-0  27038-3 0  9996
2 08818  63.3475 227.0263 0435974 172.8465 187.9091 13.90782598 10000
Source of the keplerian elements: McCants